Regional Weather Roundup
Issued by NWS

Home | Current Version | Previous Version | Graphics & Text | Print | Product List | Glossary On
Versions: 1 2 3 4 5 6 7 8 9 10 11 12 13 14 15 16 17 18 19 20 21 22 23 24 25 26 27 28 29 30 31 32 33 34 35 36 37 38 39 40 41 42 43 44 45 46 47 48 49 50
000
ASUS43 KOAX 051302
RWRNE

WEATHER ROUNDUP FOR NEBRASKA
NATIONAL WEATHER SERVICE OMAHA NE
800 AM CDT SAT SEP 05 2015

NOTES: SATELLITE DATA IS BEING USED TO AUGMENT CLOUD COVER ABOVE
       12000 FEET.
       "FAIR" INDICATES FEW OR NO CLOUDS BELOW 12,000 FEET WITH NO
       SIGNIFICANT WEATHER AND/OR OBSTRUCTIONS TO VISIBILITY.

  * THESE STATIONS DO NOT REPORT WEATHER SUCH AS RAIN...SNOW OR FOG.

NEZ001>004-019>022-054>056-051400-
NEBRASKA PANHANDLE

CITY           SKY/WX    TMP DP  RH WIND       PRES   REMARKS
SCOTTSBLUFF    CLOUDY    65  56  72 NW7       29.88R
ALLIANCE       CLOUDY    66  59  78 SE5       29.86R
CHADRON        CLOUDY    67  61  81 SE3       29.80F
KIMBALL        MOCLDY    64  51  62 W5        29.92S
SIDNEY         MOCLDY    62  57  83 NW6       29.89R
$$

NEZ057>060-069>072-079>082-051400-
SOUTHWEST NEBRASKA

CITY           SKY/WX    TMP DP  RH WIND       PRES   REMARKS
NORTH PLATTE   CLOUDY    73  58  59 S8        29.84S
IMPERIAL       CLOUDY    73  55  53 S13       29.86R
LEXINGTON      PTCLDY    74  62  66 S12       29.87R
MC COOK        MOCLDY    76  58  53 SW12      29.86S
OGALLALA       CLOUDY    72  56  57 S6        29.84R
$$

NEZ005>010-023>029-035>040-094-051400-
NORTH CENTRAL NEBRASKA

CITY           SKY/WX    TMP DP  RH WIND       PRES   REMARKS
VALENTINE      CLOUDY    69  64  84 S13       29.82R
AINSWORTH      CLOUDY    71  63  76 S8        29.84R
BROKEN BOW     PTCLDY    73  61  65 S12       29.86S
O`NEILL        MOCLDY    72  64  76 S9        29.84S
ORD            CLEAR     72  63  73 SE8       29.85R
THEDFORD       CLOUDY    72  61  68 CALM      29.85R
$$

NEZ041-046>049-061>064-073>077-083>087-051400-
SOUTH CENTRAL NEBRASKA

CITY           SKY/WX    TMP DP  RH WIND       PRES   REMARKS
GRAND ISLAND   CLEAR     73  66  78 S17G23    29.89R
AURORA         CLEAR     73  69  87 S13G18    29.91R
HASTINGS       CLEAR     74  66  76 S12       29.91R
HEBRON         SUNNY     74  66  75 S12G17    29.93S
HOLDREGE       PTCLDY    73  62  66 S10       29.90R
KEARNEY *      CLEAR     73  61  64 S15       29.88S
YORK           SUNNY     73  68  83 S13       29.92R
$$

NEZ011>018-030>034-042>045-051400-
NORTHEAST NEBRASKA

CITY           SKY/WX    TMP DP  RH WIND       PRES   REMARKS
NORFOLK        SUNNY     75  68  78 S18       29.87S
ALBION         CLEAR     73  65  78 SE9       29.88R
BLAIR          FAIR      73  67  81 S13       29.94R
COLUMBUS *     SUNNY     75  64  69 S6        29.90S
FREMONT        SUNNY     74  68  81 SE9       29.92S
TEKAMAH        MOSUNNY   75  70  84 S10       29.92R
$$

NEZ050>053-065>068-078-088>093-051400-
SOUTHEAST NEBRASKA

CITY           SKY/WX    TMP DP  RH WIND       PRES   REMARKS
LINCOLN        SUNNY     75  69  81 S12       29.93R
OMAHA EPPLEY   PTSUNNY   76  69  79 S16       29.94R
BEATRICE       SUNNY     74  69  85 S10       29.95S
FALLS CITY     SUNNY     74  69  85 S7        29.98R
NEBRASKA CITY  SUNNY     73  69  90 S8        29.98R
PLATTSMOUTH    SUNNY     71  68  89 SE12      29.96S
$$

NEZ044-045-051>053-067-051400-
OMAHA AREA

CITY           SKY/WX    TMP DP  RH WIND       PRES   REMARKS
EPPLEY FIELD   PTSUNNY   76  69  79 S16       29.94R
BLAIR          SUNNY     73  67  81 S13       29.94R
FREMONT        SUNNY     74  68  81 SE9       29.92S
MILLARD        SUNNY     74  69  84 SE8       29.94R
OFFUTT AFB     SUNNY     74  69  85 SE9       29.94R
PLATTSMOUTH    SUNNY     71  68  89 SE12      29.96S
WAHOO          FAIR      73  70  90 S8        29.93R
$$



USA.gov is the U.S. government's official web portal to all federal, state and local government web resources and services.